WetterOnline ( http://www.wetteronline.de )

Wetter aktuell Enkenbach-Alsenborn

Aktuelles Wetter: Weinbiet/Pfalz (557m)

6-stündlich | Neueste Meldungen
Ortszeit Temperatur Wetter
Fr, 17.08. 14:00 26.5° C leicht bewölkt
Fr, 17.08. 8:00 21.2° C leicht bewölkt
Fr, 17.08. 2:00 23.0° C wolkig
Do, 16.08. 20:00 25.4° C fast wolkenlos
Do, 16.08. 14:00 27.3° C wolkenlos
Do, 16.08. 8:00 17.9° C wolkenlos
Do, 16.08. 2:00 17.5° C wolkig
Mi, 15.08. 20:00 20.7° C leicht bewölkt
Ortszeit Temperatur Wetter
Fr, 17.08. 14:30 26.2° C leicht bewölkt
Fr, 17.08. 14:20 26.2° C leicht bewölkt
Fr, 17.08. 14:10 25.9° C wolkenlos
Fr, 17.08. 14:00 26.5° C leicht bewölkt
Fr, 17.08. 13:50 26.5° C leicht bewölkt
Fr, 17.08. 13:40 27.0° C leicht bewölkt
Fr, 17.08. 13:30 28.2° C leicht bewölkt
Fr, 17.08. 13:00 26.5° C wolkenlos
Fr, 17.08. 12:30 25.4° C fast wolkenlos
Fr, 17.08. 12:00 24.5° C fast wolkenlos
Fr, 17.08. 11:30 24.8° C wolkig
Ortszeit Relative Feuchte Sichtweite
Fr, 17.08. 14:00 44% 10 km
Fr, 17.08. 8:00 56% 9 km
Fr, 17.08. 2:00 45% 10 km
Do, 16.08. 20:00 41% 9 km
Do, 16.08. 14:00 39% 10 km
Do, 16.08. 8:00 67% 10 km
Do, 16.08. 2:00 66% 10 km
Mi, 15.08. 20:00 54% 10 km
Ortszeit Relative Feuchte Sichtweite
Fr, 17.08. 14:30 44% 9 km
Fr, 17.08. 14:20 44% -
Fr, 17.08. 14:10 45% -
Fr, 17.08. 14:00 44% 10 km
Fr, 17.08. 13:50 44% -
Fr, 17.08. 13:40 42% -
Fr, 17.08. 13:30 41% 9 km
Fr, 17.08. 13:00 44% 9 km
Fr, 17.08. 12:30 46% 10 km
Fr, 17.08. 12:00 47% 10 km
Fr, 17.08. 11:30 47% 10 km
Ortszeit Niederschlagsmenge Niederschlagsart
Fr, 17.08. 14:00 0.0 l/m2 in 6 Std. -
Fr, 17.08. 8:00 0.0 l/m2 in 12 Std. -
Fr, 17.08. 2:00 0.0 l/m2 in 6 Std. -
Do, 16.08. 20:00 0.0 l/m2 in 12 Std. -
Do, 16.08. 14:00 0.0 l/m2 in 6 Std. -
Do, 16.08. 8:00 0.0 l/m2 in 12 Std. -
Do, 16.08. 2:00 0.0 l/m2 in 6 Std. -
Mi, 15.08. 20:00 0.0 l/m2 in 12 Std. -
Ortszeit Niederschlagsmenge Niederschlagsart
Fr, 17.08. 14:30 0.0 l/m2 in 1 Std. -
Fr, 17.08. 14:20 keine Meldung -
Fr, 17.08. 14:10 keine Meldung -
Fr, 17.08. 14:00 0.0 l/m2 in 1 Std. -
Fr, 17.08. 13:50 keine Meldung -
Fr, 17.08. 13:40 keine Meldung -
Fr, 17.08. 13:30 0.0 l/m2 in 1 Std. -
Fr, 17.08. 13:00 0.0 l/m2 in 1 Std. -
Fr, 17.08. 12:30 0.0 l/m2 in 1 Std. -
Fr, 17.08. 12:00 0.0 l/m2 in 1 Std. -
Fr, 17.08. 11:30 0.0 l/m2 in 1 Std. -
Ortszeit Stärke Spitze Richtung
km/h Bft. km/h Grad Sektor
Fr, 17.08. 14:00 11 2 25 40° NO
Fr, 17.08. 8:00 6 1 13 360° N
Fr, 17.08. 2:00 7 2 14 120° SO
Do, 16.08. 20:00 11 2 29 160° S
Do, 16.08. 14:00 13 3 22 170° S
Do, 16.08. 8:00 13 3 19 140° SO
Do, 16.08. 2:00 9 2 22 140° SO
Mi, 15.08. 20:00 14 3 32 290° W
Ortszeit Stärke Spitze Richtung
km/h Bft. km/h Grad Sektor
Fr, 17.08. 14:30 7 2 22 360° N
Fr, 17.08. 14:20 7 2 - 360° N
Fr, 17.08. 14:10 13 3 - 20° N
Fr, 17.08. 14:00 11 2 25 40° NO
Fr, 17.08. 13:50 11 2 - 40° NO
Fr, 17.08. 13:40 13 3 - 40° NO
Fr, 17.08. 13:30 7 2 18 340° N
Fr, 17.08. 13:00 7 2 17 310° NW
Fr, 17.08. 12:30 11 2 17 310° NW
Fr, 17.08. 12:00 9 2 26 340° N
Fr, 17.08. 11:30 7 2 25 290° W
Ortszeit Untergrenze Bedeckung Gattung
total tief tief mittel hoch
Fr, 17.08. 14:00 8100 m 3/8 0/8 - - -
Fr, 17.08. 8:00 1800 m 4/8 1/8 - - -
Fr, 17.08. 2:00 8700 m 8/8 0/8 - - -
Do, 16.08. 20:00 10500 m 1/8 0/8 - - -
Do, 16.08. 14:00 - 0/8 0/8 - - -
Do, 16.08. 8:00 - 0/8 0/8 - - -
Do, 16.08. 2:00 10500 m 8/8 0/8 - - -
Mi, 15.08. 20:00 9000 m 8/8 0/8 - - -
Ortszeit Bedeckungsgrad in Achtel und Wolkenuntergrenze
Fr, 17.08. 14:30 4(8100m)
Fr, 17.08. 14:20 4(8100m)
Fr, 17.08. 14:10 keine Wolken
Fr, 17.08. 14:00 2(8100m) 3(9000m)
Fr, 17.08. 13:50 2(8100m) 3(9000m)
Fr, 17.08. 13:40 4(8100m) 6(9000m)
Fr, 17.08. 13:30 3(9000m)
Fr, 17.08. 13:00 keine Wolken
Fr, 17.08. 12:30 1(9000m)
Fr, 17.08. 12:00 1(9000m)
Fr, 17.08. 11:30 5(8100m) 7(9000m) 6(9000m)
Ortszeit Luftdruck NN (hPa) Tendenz (hPa in 3 Std.)
Fr, 17.08. 14:00 1014 - 0,1
Fr, 17.08. 8:00 1013 + 0,8
Fr, 17.08. 2:00 1013 - 0,3
Do, 16.08. 20:00 1013 - 0,9
Do, 16.08. 14:00 1014 - 1,1
Do, 16.08. 8:00 1018 - 0,5
Do, 16.08. 2:00 1020 - 0,2
Mi, 15.08. 20:00 1019 - 0,5
Ortszeit Luftdruck NN (hPa) Tendenz (hPa in 3 Std.)
Fr, 17.08. 14:30 1014 - 0,1
Fr, 17.08. 14:20 1014 keine Meldung
Fr, 17.08. 14:10 1014 keine Meldung
Fr, 17.08. 14:00 1014 - 0,1
Fr, 17.08. 13:50 1014 keine Meldung
Fr, 17.08. 13:40 1014 keine Meldung
Fr, 17.08. 13:30 1014 + 0,3
Fr, 17.08. 13:00 1014 + 0,8
Fr, 17.08. 12:30 1014 + 1,1
Fr, 17.08. 12:00 1015 + 1,4
Fr, 17.08. 11:30 1015 + 1,7
Ortszeit Schneehöhe (cm)
Fr, 17.08. 14:00 -
Fr, 17.08. 8:00 -
Fr, 17.08. 2:00 -
Do, 16.08. 20:00 -
Do, 16.08. 14:00 -
Do, 16.08. 8:00 -
Do, 16.08. 2:00 -
Mi, 15.08. 20:00 -
Ortszeit Schneehöhe (cm)
Fr, 17.08. 14:30 -
Fr, 17.08. 14:20 -
Fr, 17.08. 14:10 -
Fr, 17.08. 14:00 -
Fr, 17.08. 13:50 -
Fr, 17.08. 13:40 -
Fr, 17.08. 13:30 -
Fr, 17.08. 13:00 -
Fr, 17.08. 12:30 -
Fr, 17.08. 12:00 -
Fr, 17.08. 11:30 -
Link zu dieser Seite / Seite empfehlen

Das Wetter in ...